User: anonymous   Login
Location: Arrakis Observatory
(44.1122°N, 95.7153°W)
Time: 18:49:06
(UTC-05:00)
Language:

Iridium 35 - Orbit

View from above orbital plane
View from above orbital plane
View from above satellite
View from above satellite

Ground track
Ground track

The orbit data is extracted from the following two-line orbital elements,

1 24966U 97056B   15147.30962011  .00000234  00000-0  76433-4 0  9990
2 24966 086.3959 272.9509 0002218 094.3554 265.7895 14.34217581924762
Epoch (UTC): 27 May 2015 07:25:51
Eccentricity: 0.0002218
inclination: 86.3959°
perigee height: 776 km
apogee height: 779 km
right ascension of ascending node: 272.9509°
argument of perigee: 94.3554°
revolutions per day: 14.34217581
mean anomaly at epoch: 265.7895°
orbit number at epoch: 92476

The dashed part of the orbit path shows where the satellite is in the earth's shadow,  

DLR